This is the latest recevied weather packets stored in our database for station/object R1CBW-13. If no packets are shown the sender has not sent any weather packets the latest 10 day(s).
| Time | Temp. | Humidity | Pressure | Rain* | Wind** | Luminosity | Snow |
|---|---|---|---|---|---|---|---|
| 1776924250 | 1.67° C | 50% | 1004 hPa | 0 mm | - | - | - |
| 1776924190 | 2.22° C | 49% | 1004.1 hPa | 0 mm | - | - | - |
| 1776924130 | 2.22° C | 49% | 1003.9 hPa | 0 mm | - | - | - |
| 1776924070 | 2.22° C | 48% | 1003.9 hPa | 0 mm | - | - | - |
| 1776924010 | 2.78° C | 48% | 1003.9 hPa | 0 mm | - | - | - |
| 1776923950 | 1.67° C | 50% | 1004 hPa | 0 mm | - | - | - |
| 1776923890 | 1.67° C | 50% | 1004.3 hPa | 0 mm | - | - | - |
| 1776923830 | 1.67° C | 49% | 1004.2 hPa | 0 mm | - | - | - |
| 1776923770 | 1.67° C | 50% | 1004.1 hPa | 0 mm | - | - | - |
| 1776923710 | 1.11° C | 50% | 1004.4 hPa | 0 mm | - | - | - |
| 1776923650 | 1.67° C | 49% | 1004.2 hPa | 0 mm | - | - | - |
| 1776923590 | 1.67° C | 49% | 1004.2 hPa | 0 mm | - | - | - |
| 1776923530 | 2.22° C | 49% | 1004.2 hPa | 0 mm | - | - | - |
| 1776923470 | 1.67° C | 50% | 1004 hPa | 0 mm | - | - | - |
| 1776923410 | 2.22° C | 49% | 1004 hPa | 0 mm | - | - | - |
| 1776923350 | 2.78° C | 49% | 1003.9 hPa | 0 mm | - | - | - |
| 1776923290 | 2.22° C | 50% | 1003.8 hPa | 0 mm | - | - | - |
| 1776923230 | 2.22° C | 49% | 1003.8 hPa | 0 mm | - | - | - |
| 1776923170 | 1.67° C | 51% | 1003.7 hPa | 0 mm | - | - | - |
| 1776923110 | 1.67° C | 50% | 1003.9 hPa | 0 mm | - | - | - |
| 1776923050 | 2.22° C | 49% | 1003.8 hPa | 0 mm | - | - | - |
| 1776922990 | 2.22° C | 49% | 1003.9 hPa | 0 mm | - | - | - |
| 1776922930 | 2.78° C | 49% | 1003.8 hPa | 0 mm | - | - | - |
| 1776922870 | 2.22° C | 50% | 1003.7 hPa | 0 mm | - | - | - |
| 1776922810 | 1.67° C | 51% | 1003.7 hPa | 0 mm | - | - | - |
* Rain latest hour (hover to see other rain measurements)
** Current wind speed in m/s (hover to see current wind gust speed)